Hagerstown, MD

11:22 PM EDT on July 22, 2017 (GMT -0400)
Hagerstown Regional-Henson

Weather History for KHGR - April, 2014

Change the Weather History Date:

Friday, April 4, 2014

  Actual Average Record
Temperature  
Mean Temperature 49 °F 49 °F  
Max Temperature 51 °F 59 °F 80 °F (2011)
Min Temperature 47 °F 39 °F 22 °F (2013)
Degree Days  
Heating Degree Days 16 17  
Month to date heating degree days 50 69  
Since 1 July heating degree days 4924 4701  
Cooling Degree Days 0 0  
Month to date cooling degree days 0 0  
Year to date cooling degree days 0 1  
Moisture  
Dew Point 43 °F    
Average Humidity 76    
Maximum Humidity 86    
Minimum Humidity 65    
Precipitation  
Precipitation 0.02 in 0.12 in 0.45 in (1999)
Month to date precipitation 0.06 0.53  
Year to date precipitation 5.51 9.14  
Sea Level Pressure  
Sea Level Pressure 29.83 in    
Wind  
Wind Speed 8 mph (ENE)    
Max Wind Speed 13 mph    
Max Gust Speed 17 mph    
Visibility 7 miles    
Events Rain    
T = Trace of Precipitation, MM = Missing Value Source: NWS Daily Summary

Daily Weather History Graph

Daily Weather History Graph

Search for Another Location

Airport or City:

Trip Planner

Search our weather history database for the weather conditions in past years. The results will help you decide how hot, cold, wet, or windy it might be!

Date:

Astronomy

Apr. 04, 2014 Rise Set
Actual Time 6:50 AM EDT 7:38 PM EDT
Civil Twilight 6:23 AM EDT 8:05 PM EDT
Nautical Twilight 5:50 AM EDT 8:37 PM EDT
Astronomical Twilight 5:17 AM EDT 9:11 PM EDT
Moon 10:06 AM EDT (4/4) No Moon Set
Length of Visible Light 13h 42m
Length of Day
12h 47m
Waxing Crescent, 25% of the Moon is Illuminated
Apr 4
Waxing Crescent
Apr 7
First Quarter
Apr 15
Full
Apr 22
Last Quarter
Apr 29
New

Hourly Weather History & Observations

Time (EDT) Temp. Windchill Dew Point Humidity Pressure Visibility Wind Dir Wind Speed Gust Speed Precip Events Conditions
12:53 AM 48.0 °F - 46.0 °F 93% 29.96 in 3.0 mi North 6.9 mph - 0.01 in Rain Light Rain
1:53 AM 48.0 °F - 46.0 °F 93% 29.94 in 3.0 mi Calm Calm - 0.00 in   Overcast
2:53 AM 50.0 °F - 46.0 °F 86% 29.92 in 6.0 mi East 4.6 mph - N/A   Overcast
3:53 AM 51.1 °F - 45.0 °F 80% 29.92 in 6.0 mi East 6.9 mph - N/A   Haze
4:53 AM 50.0 °F - 43.0 °F 77% 29.92 in 6.0 mi East 9.2 mph - N/A   Haze
5:53 AM 48.9 °F - 42.1 °F 77% 29.93 in 7.0 mi East 9.2 mph - N/A   Overcast
6:53 AM 48.0 °F - 39.0 °F 71% 29.94 in 9.0 mi East 8.1 mph - N/A   Overcast
7:44 AM 46.9 °F - 39.0 °F 74% 29.93 in 7.0 mi East 9.2 mph - N/A   Overcast
7:53 AM 46.9 °F - 39.0 °F 74% 29.96 in 8.0 mi East 9.2 mph - N/A   Overcast
8:53 AM 46.9 °F - 36.0 °F 66% 29.96 in 10.0 mi East 11.5 mph - N/A   Overcast
9:53 AM 46.9 °F - 36.0 °F 66% 29.96 in 10.0 mi East 5.8 mph - N/A   Overcast
10:53 AM 48.0 °F - 37.0 °F 66% 29.94 in 10.0 mi ESE 8.1 mph - N/A   Overcast
11:53 AM 48.9 °F - 37.9 °F 66% 29.89 in 10.0 mi East 9.2 mph - N/A   Overcast
12:53 PM 50.0 °F - 39.9 °F 68% 29.87 in 10.0 mi SE 8.1 mph - N/A   Overcast
1:53 PM 51.1 °F - 42.1 °F 71% 29.83 in 10.0 mi SE 8.1 mph - N/A   Overcast
2:53 PM 50.0 °F - 43.0 °F 77% 29.80 in 6.0 mi East 5.8 mph - 0.01 in Rain Light Rain
3:53 PM 50.0 °F - 43.0 °F 77% 29.77 in 10.0 mi ESE 5.8 mph - 0.01 in   Overcast
4:53 PM 51.1 °F - 44.1 °F 77% 29.76 in 9.0 mi ENE 4.6 mph - N/A   Overcast
5:53 PM 52.0 °F - 45.0 °F 77% 29.73 in 9.0 mi ENE 3.5 mph - N/A   Overcast
6:53 PM 53.1 °F - 46.9 °F 80% 29.72 in 8.0 mi ENE 6.9 mph - N/A   Mostly Cloudy
7:04 PM 52.0 °F - 46.0 °F 80% 29.68 in 8.0 mi East 6.9 mph - N/A   Overcast
7:11 PM 52.0 °F - 46.0 °F 80% 29.68 in 8.0 mi East 5.8 mph - N/A   Mostly Cloudy
7:53 PM 51.1 °F - 46.0 °F 83% 29.73 in 7.0 mi East 5.8 mph - N/A   Mostly Cloudy
8:53 PM 48.0 °F - 46.0 °F 93% 29.76 in 6.0 mi NE 5.8 mph - 0.01 in   Mostly Cloudy
9:37 PM 48.0 °F - 46.0 °F 93% 29.71 in 6.0 mi North 4.6 mph - N/A   Mostly Cloudy
9:53 PM 48.0 °F - 45.0 °F 89% 29.76 in 6.0 mi NE 5.8 mph - N/A   Mostly Cloudy
10:13 PM 46.9 °F - 44.1 °F 90% 29.71 in 5.0 mi NNE 4.6 mph - N/A   Partly Cloudy
10:53 PM 46.0 °F 39.9 °F 44.1 °F 93% 29.78 in 3.0 mi NNW 13.8 mph - N/A   Mostly Cloudy
10:57 PM 46.0 °F 41.4 °F 44.1 °F 93% 29.74 in 3.0 mi NNW 9.2 mph - N/A   Mostly Cloudy
11:38 PM 48.0 °F - 46.0 °F 93% 29.73 in 4.0 mi NE 4.6 mph - N/A   Overcast
11:53 PM 46.9 °F - 45.0 °F 93% 29.78 in 4.0 mi ENE 5.8 mph - N/A   Overcast